Powrót do katalogu

COSMOS 970 DEB

AktywnyLEO
NORAD 64992·DEBRIS·🇷🇺 Russia

Wystrzelony Dec 21, 1977 z Baikonur Cosmodrome

Loading…

Następne Przeloty (najbliższe 24 godziny)

TLE

ŚwieżeSource: Space-Track

Epoka: Sep 13, 2026, 14:49 UTC

1 64992U 77121DD  26256.61740059 -.00000045  00000-0  44405-4 0  9992
2 64992  65.8514  28.8433 0116807 255.1204 117.6741 13.54543763633494

Śledź COSMOS 970 DEB w czasie rzeczywistym z AllMySat

Download on the App Store